Location: Stoke Bliss
(52.2667°N, 2.5167°W)
Time: 18:37:19
(UTC+00:00)

COSMOS 2428 - Pass Details

Date: 03 March 2021
Orbit: 845 x 858 km, 70.9° (Epoch: 17 April)

Event Time Altitude Azimuth Distance (km) Brightness Sun altitude
Rises 21:01:02 0° 213° (SSW) 3,396 5.9 -28.6°
Reaches altitude 10° 21:03:28 10° 214° (SW) 2,465 5.1 -28.9°
Enters shadow 21:07:08 42° 222° (SW) 1,192 3.4 -29.4°
Exits shadow 21:13:52 16° 29° (NNE) 2,114 4.8 -30.3°
Drops below altitude 10° 21:14:52 10° 30° (NNE) 2,486 5.1 -30.4°
Sets 21:17:20 0° 32° (NNE) 3,427 5.9 -30.7°
